Location: Dead Woman Crossing
(43.5369°N, 106.3228°W)
Time: 02:56:21
(UTC+00:00)

COSMOS 2251 DEB - Pass Details

Date: 03 December 2022
Orbit: 765 x 800 km, 74.0° (Epoch: 25 January)

Event Time Altitude Azimuth Distance (km) Brightness Sun altitude
Rises 00:15:17 0° 349° (N) 3,261 ? -8.2°
Reaches altitude 10° 00:18:10 10° 4° (N) 2,324 ? -8.7°
Maximum altitude 00:22:19 23° 56° (ENE) 1,595 ? -9.4°
Drops below altitude 10° 00:26:26 10° 109° (ESE) 2,302 ? -10.1°
Sets 00:29:16 0° 123° (ESE) 3,223 ? -10.6°
